Date String (YYYY-MM-DD hh:mm:ss) UTC,Instrument flags,absolute air pressure of the measurement (hPa),sample flow rate (lpm),inlet stack bypass flow (lpm),air temperature of the measurement (°C),ambient temperature measured by the external sensor (°C),aerosol sample conditioner tube jacket temperature (°C),OPC LED temperature (°C),internal box temperature (°C),relative humidity of the measurement (%),span deviation,mass concentration of particles derived from Lorenz-Mie calculation of OPC scattering (μg/m³),mass concentration of particles derived from Lorenz-Mie calculation of OPC scattering (μg/m³),mass concentration of particles derived from Lorenz-Mie calculation of OPC scattering (μg/m³)
DateTimeUTC,F1_M11,P_M11,Q1_M11,Q2_M11,T1_M11,T2_M11,T3_M11,T4_M11,T5_M11,U1_M11,ZSPAN_M11,X0_M11,X2_M11,X1_M11
2023-11-02 04:00:00,SystemResetWarning,0831.3,5.00,000.00,026.0,024.7,000.0,034.5,027.4,9.8,0000.0,0003.38,0001.83,0001.59
2023-11-02 04:01:00,SystemResetWarning,0831.3,5.00,000.00,025.9,024.7,000.0,034.4,027.4,9.7,0000.0,0003.43,0001.84,0001.58
2023-11-02 04:02:00,SystemResetWarning,0831.3,5.01,000.00,025.9,024.7,000.0,034.4,027.4,9.5,0000.0,0003.44,0001.84,0001.58
2023-11-02 04:03:00,SystemResetWarning,0831.4,5.01,000.00,025.9,024.7,000.0,034.4,027.4,9.7,0000.0,0003.44,0001.85,0001.58
2023-11-02 04:04:00,SystemResetWarning,0831.3,5.00,000.00,025.9,024.7,000.0,034.4,027.4,10.0,0000.0,0003.31,0001.83,0001.57
2023-11-02 04:05:00,SystemResetWarning,0831.3,4.98,000.00,025.9,024.7,000.0,034.4,027.4,10.0,0000.0,0002.71,0001.82,0001.56
2023-11-02 04:06:00,SystemResetWarning,0831.3,5.01,000.00,025.9,024.6,000.0,034.4,027.3,10.1,0000.0,0002.60,0001.81,0001.55
2023-11-02 04:07:00,SystemResetWarning,0831.3,5.01,000.00,025.9,024.6,000.0,034.4,027.3,10.0,0000.0,0002.71,0001.84,0001.55
2023-11-02 04:08:00,SystemResetWarning,0831.4,5.01,000.00,025.9,024.6,000.0,034.4,027.3,9.9,0000.0,0002.69,0001.83,0001.54
2023-11-02 04:09:00,SystemResetWarning,0831.4,4.99,000.00,025.9,024.7,000.0,034.4,027.3,9.8,0000.0,0002.44,0001.82,0001.53
2023-11-02 04:10:00,SystemResetWarning,0831.4,5.00,000.00,025.9,024.7,000.0,034.4,027.3,9.8,0000.0,0002.24,0001.78,0001.50
2023-11-02 04:11:00,SystemResetWarning,0831.3,5.01,000.00,025.9,024.7,000.0,034.4,027.3,9.8,0000.0,0002.25,0001.78,0001.50
2023-11-02 04:12:00,SystemResetWarning,0831.4,5.01,000.00,025.9,024.7,000.0,034.4,027.3,9.7,0000.0,0002.12,0001.72,0001.49
2023-11-02 04:13:00,SystemResetWarning,0831.4,4.99,000.00,025.9,024.7,000.0,034.3,027.3,9.4,0000.0,0002.07,0001.70,0001.49
2023-11-02 04:14:00,SystemResetWarning,0831.4,5.00,000.00,025.9,024.7,000.0,034.3,027.3,9.6,0000.0,0002.16,0001.74,0001.49
2023-11-02 04:15:00,SystemResetWarning,0831.4,4.99,000.00,025.9,024.6,000.0,034.3,027.3,9.6,0000.0,0002.28,0001.76,0001.50
2023-11-02 04:16:00,SystemResetWarning,0831.3,5.00,000.00,025.9,024.7,000.0,034.3,027.3,9.5,0000.0,0002.24,0001.74,0001.49
2023-11-02 04:17:00,SystemResetWarning,0831.3,5.00,000.00,025.9,024.6,000.0,034.3,027.3,9.6,0000.0,0002.25,0001.74,0001.49
2023-11-02 04:18:00,SystemResetWarning,0831.4,5.00,000.00,025.9,024.6,000.0,034.3,027.3,9.6,0000.0,0002.22,0001.72,0001.48
2023-11-02 04:19:00,SystemResetWarning,0831.4,5.01,000.00,025.9,024.6,000.0,034.3,027.2,9.8,0000.0,0002.20,0001.72,0001.49
2023-11-02 04:20:00,SystemResetWarning,0831.3,5.00,000.00,025.8,024.6,000.0,034.3,027.2,9.7,0000.0,0002.25,0001.73,0001.50
2023-11-02 04:21:00,SystemResetWarning,0831.4,5.01,000.00,025.8,024.6,000.0,034.3,027.2,9.7,0000.0,0002.32,0001.76,0001.51
2023-11-02 04:22:00,SystemResetWarning,0831.4,5.00,000.00,025.8,024.6,000.0,034.3,027.3,9.5,0000.0,0002.59,0001.76,0001.51
2023-11-02 04:23:00,SystemResetWarning,0831.4,4.99,000.00,025.8,024.5,000.0,034.3,027.2,9.7,0000.0,0002.90,0001.79,0001.51
2023-11-02 04:24:00,SystemResetWarning,0831.4,5.00,000.00,025.8,024.5,000.0,034.3,027.2,9.5,0000.0,0003.07,0001.83,0001.53
2023-11-02 04:25:00,SystemResetWarning,0831.4,5.00,000.00,025.8,024.5,000.0,034.3,027.2,9.2,0000.0,0003.03,0001.79,0001.52
2023-11-02 04:26:00,SystemResetWarning,0831.4,5.00,000.00,025.8,024.5,000.0,034.3,027.2,9.1,0000.0,0002.94,0001.79,0001.50
2023-11-02 04:27:00,SystemResetWarning,0831.4,5.00,000.00,025.8,024.5,000.0,034.3,027.2,9.1,0000.0,0002.94,0001.79,0001.50
2023-11-02 04:28:00,SystemResetWarning,0831.5,4.99,000.00,025.8,024.5,000.0,034.3,027.2,9.3,0000.0,0002.99,0001.81,0001.51
2023-11-02 04:29:00,SystemResetWarning,0831.5,4.99,000.00,025.8,024.5,000.0,034.3,027.2,9.5,0000.0,0002.94,0001.79,0001.51
2023-11-02 04:30:00,SystemResetWarning,0831.4,4.99,000.00,025.8,024.5,000.0,034.3,027.2,9.8,0000.0,0002.92,0001.78,0001.50
2023-11-02 04:31:00,SystemResetWarning,0831.4,5.00,000.00,025.8,024.5,000.0,034.3,027.2,9.6,0000.0,0002.88,0001.76,0001.49
2023-11-02 04:32:00,SystemResetWarning,0831.4,5.01,000.00,025.8,024.5,000.0,034.2,027.2,9.5,0000.0,0002.87,0001.72,0001.47
2023-11-02 04:33:00,SystemResetWarning,0831.4,5.00,000.00,025.8,024.5,000.0,034.2,027.2,9.3,0000.0,0002.88,0001.69,0001.46
2023-11-02 04:34:00,SystemResetWarning,0831.4,5.01,000.00,025.8,024.5,000.0,034.2,027.2,9.5,0000.0,0003.15,0001.67,0001.44
2023-11-02 04:35:00,SystemResetWarning,0831.4,5.00,000.00,025.8,024.5,000.0,034.2,027.2,9.5,0000.0,0003.51,0001.68,0001.42
2023-11-02 04:36:00,SystemResetWarning,0831.4,5.00,000.00,025.8,024.5,000.0,034.2,027.2,9.4,0000.0,0003.65,0001.69,0001.41
2023-11-02 04:37:00,SystemResetWarning,0831.4,5.00,000.00,025.8,024.5,000.0,034.2,027.2,9.4,0000.0,0004.51,0001.68,0001.42
2023-11-02 04:38:00,SystemResetWarning,0831.4,5.00,000.00,025.8,024.5,000.0,034.2,027.2,9.3,0000.0,0004.46,0001.65,0001.42
2023-11-02 04:39:00,SystemResetWarning,0831.4,5.00,000.00,025.7,024.5,000.0,034.2,027.2,9.5,0000.0,0004.46,0001.64,0001.40
2023-11-02 04:40:00,SystemResetWarning,0831.4,4.99,000.00,025.7,024.5,000.0,034.2,027.2,9.3,0000.0,0004.51,0001.61,0001.39
2023-11-02 04:41:00,SystemResetWarning,0831.4,5.01,000.00,025.7,024.5,000.0,034.2,027.2,9.5,0000.0,0005.24,0001.61,0001.40
2023-11-02 04:42:00,SystemResetWarning,0831.4,5.00,000.00,025.7,024.5,000.0,034.2,027.2,9.2,0000.0,0005.74,0001.63,0001.42
2023-11-02 04:43:00,SystemResetWarning,0831.4,5.01,000.00,025.7,024.5,000.0,034.2,027.1,9.2,0000.0,0005.98,0001.66,0001.43
2023-11-02 04:44:00,SystemResetWarning,0831.4,5.00,000.00,025.7,024.5,000.0,034.2,027.2,9.4,0000.0,0005.96,0001.69,0001.44
2023-11-02 04:45:00,SystemResetWarning,0831.4,4.99,000.00,025.7,024.5,000.0,034.2,027.1,9.6,0000.0,0005.63,0001.71,0001.46
2023-11-02 04:46:00,SystemResetWarning,0831.4,4.99,000.00,025.7,024.5,000.0,034.2,027.1,9.6,0000.0,0004.97,0001.74,0001.47
2023-11-02 04:47:00,SystemResetWarning,0831.4,5.01,000.00,025.7,024.5,000.0,034.2,027.1,9.6,0000.0,0004.81,0001.71,0001.48
2023-11-02 04:48:00,SystemResetWarning,0831.4,5.01,000.00,025.7,024.5,000.0,034.2,027.2,9.6,0000.0,0003.88,0001.71,0001.48
2023-11-02 04:49:00,SystemResetWarning,0831.4,5.01,000.00,025.7,024.5,000.0,034.2,027.2,9.5,0000.0,0003.79,0001.72,0001.49
2023-11-02 04:50:00,SystemResetWarning,0831.4,5.00,000.00,025.7,024.5,000.0,034.2,027.2,9.4,0000.0,0003.79,0001.73,0001.49
2023-11-02 04:51:00,SystemResetWarning,0831.5,4.98,000.00,025.7,024.5,000.0,034.2,027.2,9.4,0000.0,0003.71,0001.74,0001.49
2023-11-02 04:52:00,SystemResetWarning,0831.4,5.00,000.00,025.7,024.6,000.0,034.2,027.2,9.4,0000.0,0003.20,0001.78,0001.48
2023-11-02 04:53:00,SystemResetWarning,0831.4,5.00,000.00,025.7,024.5,000.0,034.2,027.2,9.3,0000.0,0002.84,0001.78,0001.47
2023-11-02 04:54:00,SystemResetWarning,0831.4,5.00,000.00,025.7,024.6,000.0,034.2,027.1,9.3,0000.0,0002.68,0001.78,0001.46
2023-11-02 04:55:00,SystemResetWarning,0831.5,5.00,000.00,025.7,024.6,000.0,034.2,027.2,9.4,0000.0,0002.71,0001.76,0001.46
2023-11-02 04:56:00,SystemResetWarning,0831.4,4.99,000.00,025.7,024.6,000.0,034.2,027.2,9.3,0000.0,0002.71,0001.75,0001.45
2023-11-02 04:57:00,SystemResetWarning,0831.5,4.98,000.00,025.7,024.6,000.0,034.2,027.2,9.3,0000.0,0002.64,0001.73,0001.44
2023-11-02 04:58:00,SystemResetWarning,0831.4,5.01,000.00,025.8,024.6,000.0,034.2,027.2,9.2,0000.0,0002.56,0001.72,0001.44
2023-11-02 04:59:00,SystemResetWarning,0831.4,5.01,000.00,025.8,024.7,000.0,034.2,027.2,9.2,0000.0,0002.61,0001.73,0001.44
